Wind_Speed
10 8 8 8 7 8 8 9 10 12 14 15 17 19 20 21 21 21 20 20 20 20 18 17 15 12 10 8 7 8 10 12 14 16 19 20 20 22 23 24 24 24 25
11 9 9 8 8 8 8 9 10 12 14 15 17 19 20 21 21 20 20 20 20 20 19 17 15 12 10 8 6 6 7 10 12 14 17 19 20 22 22 23 24 24 24
11 10 9 9 8 8 9 9 10 12 14 15 17 18 20 20 20 20 19 19 19 19 18 17 15 12 10 8 6 5 6 7 10 12 15 18 20 22 22 22 24 24 25
12 11 10 10 9 9 9 9 11 12 14 15 17 18 19 19 20 19 19 19 19 18 17 16 15 13 11 9 6 5 4 5 8 10 12 15 18 20 21 22 23 24 25
12 12 11 10 10 9 9 10 11 12 14 15 16 17 18 19 19 19 18 18 18 18 17 16 15 13 11 9 7 5 4 4 6 8 10 13 16 19 19 20 23 24 25
12 12 12 11 11 10 10 10 11 12 14 15 16 17 18 18 18 18 18 18 18 18 17 16 15 14 12 9 8 6 5 4 5 6 9 11 14 17 18 18 20 23 24
12 12 12 12 11 11 10 10 11 12 13 14 15 16 17 18 18 18 18 18 18 18 17 16 15 14 12 10 8 7 6 5 4 5 7 9 12 16 16 18 19 21 23
12 13 13 13 12 12 11 11 11 12 13 14 14 15 16 17 17 17 18 17 17 17 17 16 15 14 12 11 9 7 6 6 5 5 6 8 10 13 14 16 17 19 21
14 13 13 13 13 12 12 12 11 11 12 13 14 15 15 16 17 17 18 18 17 17 17 16 15 14 13 11 10 8 7 6 6 5 6 7 9 11 13 14 15 17 20
15 15 14 14 14 14 13 12 12 12 12 13 13 14 15 15 16 17 17 17 17 17 16 16 15 15 14 12 11 9 8 7 6 6 6 6 8 10 12 14 14 16 18
15 15 16 16 15 15 14 13 12 12 12 12 13 14 14 15 16 17 17 17 17 17 16 16 15 15 14 13 12 11 9 8 7 6 6 7 7 8 10 13 14 16 17
17 16 17 17 17 16 15 14 13 13 12 12 13 13 14 14 15 16 17 17 17 16 16 16 15 15 14 14 13 12 10 9 8 7 6 7 7 8 9 11 13 14 16
18 17 17 18 18 17 17 16 15 14 13 13 13 13 14 14 15 15 16 17 16 16 16 16 15 15 15 14 13 13 11 10 9 8 7 7 7 8 9 10 12 13 15
19 19 19 19 19 19 18 17 16 15 14 13 13 13 13 14 14 15 15 16 16 16 15 15 15 15 15 14 13 12 12 11 10 9 8 7 7 8 9 10 11 12 14
20 20 20 20 20 20 20 19 18 17 16 15 14 14 14 14 14 15 15 16 16 15 15 15 15 15 15 14 14 13 12 11 11 10 9 8 8 8 9 10 11 12 13
21 21 21 21 21 21 21 20 19 18 17 16 16 15 15 14 14 15 15 15 15 15 15 15 15 15 15 15 15 14 13 12 11 10 10 9 9 9 10 10 11 12 13
22 22 22 22 22 22 22 22 21 20 19 18 17 16 16 15 15 15 15 15 15 15 15 15 15 15 16 16 15 15 14 13 12 11 11 10 10 11 11 11 12 12 13
22 22 23 23 23 24 24 24 23 22 21 20 19 18 17 16 16 16 16 15 15 15 15 15 15 15 16 16 15 15 14 14 13 13 12 12 12 12 12 12 13 14 14
23 23 24 24 25 25 25 25 25 24 23 22 21 20 19 18 17 17 16 16 16 15 16 15 15 15 16 16 16 15 15 14 14 14 13 13 13 13 13 14 14 15 15
25 24 25 26 27 27 27 27 26 26 24 24 23 22 21 20 19 18 18 17 17 16 16 16 16 16 16 16 16 16 15 15 15 15 14 14 15 15 15 15 15 15 16
27 27 27 27 28 29 29 29 28 28 27 26 25 24 22 22 21 20 19 19 18 18 17 17 17 17 17 17 17 16 16 16 16 16 16 16 16 16 16 16 16 17 17
30 29 29 29 30 31 31 30 30 30 30 29 27 26 25 24 23 22 21 21 20 19 19 18 18 18 18 17 17 17 17 17 17 17 16 17 17 17 17 18 18 18 18
33 33 32 31 31 32 32 32 32 32 32 31 30 29 27 26 25 24 24 23 22 21 21 20 20 19 19 19 18 18 18 18 18 18 18 18 18 18 18 19 19 19 19
37 36 35 34 33 33 33 33 33 34 33 33 32 31 30 28 28 27 26 25 24 24 23 22 21 21 20 20 20 20 20 19 19 19 20 20 20 20 20 20 20 20 20
40 40 39 38 37 36 36 35 35 35 35 34 34 33 32 31 30 29 28 27 26 26 25 24 23 23 22 22 22 21 21 21 21 21 21 21 22 22 22 22 22 22 21
43 43 42 41 40 40 39 38 38 37 37 37 36 35 34 33 32 31 30 29 29 28 27 26 26 25 24 24 23 23 23 23 22 22 23 23 23 23 23 23 23 23 23
Wind_Direction
285 276 276 280 288 299 309 318 326 332 337 341 344 345 346 348 348 348 348 348 348 348 347 347 344 340 332 319 294 273 250 237 230 227 224 223 221 219 218 217 214 214 216
279 270 272 275 283 293 303 314 322 328 334 339 342 344 346 348 348 349 349 350 350 350 350 350 350 349 345 334 313 286 257 241 235 229 225 221 217 215 216 216 217 218 217
274 266 269 271 278 287 299 309 319 326 332 337 340 343 346 347 348 349 350 351 352 352 353 353 354 353 350 342 328 302 269 242 236 231 225 221 218 216 217 218 218 220 219
273 268 266 267 272 283 294 305 315 323 330 335 339 342 345 347 349 350 351 352 354 355 355 356 356 355 353 349 338 322 293 256 242 231 226 224 221 218 219 221 219 221 222
271 267 264 264 269 279 290 301 311 321 328 333 337 341 344 346 348 350 351 352 354 356 357 358 358 356 355 353 348 338 319 280 254 238 231 226 223 222 222 225 222 223 223
269 265 262 262 267 276 286 297 308 318 326 332 336 340 343 345 347 349 351 352 354 356 358 359 359 358 358 355 350 342 330 300 267 249 237 229 228 227 227 228 226 224 225
268 264 261 262 265 273 283 293 304 315 323 329 335 339 342 345 347 349 350 352 353 355 358 359 360 359 359 358 355 350 343 327 290 261 244 234 231 229 230 230 230 228 228
272 264 260 260 263 270 279 289 299 310 319 327 332 337 341 345 347 350 352 352 354 355 357 359 0 0 0 359 355 349 342 331 314 286 258 248 241 233 232 231 231 231 232
273 267 261 260 262 267 275 284 293 304 314 323 330 334 339 343 346 349 351 353 354 355 357 358 359 0 360 359 357 351 340 329 317 301 279 262 251 241 237 235 234 234 236
272 267 262 259 260 264 270 279 287 298 309 319 326 331 335 340 344 347 349 352 354 355 357 358 359 360 360 357 354 350 345 334 323 307 291 275 261 249 242 241 242 240 238
271 266 262 259 260 263 267 274 282 291 301 312 321 326 331 336 341 344 347 350 353 355 355 356 357 358 358 357 354 350 344 338 328 313 298 280 266 257 249 246 246 245 242
273 266 261 258 260 261 265 270 277 284 294 305 314 320 326 331 336 342 345 347 349 352 354 355 355 356 356 355 354 352 348 342 335 321 308 294 278 266 257 252 250 249 247
273 267 261 257 258 259 262 267 272 278 286 297 306 313 320 326 331 337 342 345 347 350 352 353 355 355 354 354 352 351 350 346 338 328 316 304 290 277 267 260 256 255 254
272 266 262 258 257 258 260 264 268 272 279 288 297 305 312 319 325 330 335 340 343 345 348 351 352 353 352 351 351 349 348 346 340 333 323 311 299 287 277 268 262 261 259
273 267 262 258 256 257 258 261 264 267 272 280 289 297 304 311 318 324 329 334 337 340 343 346 349 351 351 350 349 348 345 344 340 336 329 321 310 299 289 278 270 267 266
273 268 263 259 257 256 257 258 260 262 267 274 281 288 296 301 308 316 323 328 332 334 336 339 343 346 347 347 346 345 342 341 338 335 331 323 313 306 299 289 278 275 274
273 268 264 261 258 256 255 257 257 259 263 268 275 281 288 293 299 307 313 319 324 329 331 333 336 338 341 342 342 341 340 337 335 332 329 324 315 308 302 295 288 283 281
272 267 263 260 259 256 254 255 256 257 260 264 269 274 280 285 291 298 304 310 315 320 325 327 329 331 333 335 336 335 335 334 332 329 326 323 318 312 306 300 294 288 285
273 270 265 261 259 258 256 255 255 255 257 261 265 269 273 278 284 290 296 301 306 311 316 320 323 326 327 329 330 330 329 329 328 325 322 320 317 313 309 305 301 295 290
275 270 266 263 260 259 257 256 255 255 256 258 261 264 268 273 277 282 287 293 298 303 308 312 316 319 321 323 325 326 327 327 326 323 320 318 316 313 310 308 305 301 296
274 271 267 265 262 260 259 257 255 254 254 256 258 261 264 268 272 276 280 285 290 295 300 305 309 312 315 318 319 321 322 322 322 322 320 317 315 313 311 308 306 303 299
271 269 267 265 263 262 260 258 256 255 254 254 256 259 261 264 267 271 275 279 284 287 292 298 302 305 309 312 313 315 316 317 317 318 317 315 314 313 311 308 306 303 300
268 267 266 264 263 262 260 258 256 255 254 254 255 257 259 262 264 267 271 275 279 283 287 291 295 299 303 306 308 310 312 314 313 313 314 313 311 310 309 308 306 304 300
267 265 264 262 261 260 259 257 256 255 254 254 254 256 258 260 262 264 267 271 275 279 282 286 290 294 297 300 303 305 307 309 310 310 311 311 309 307 305 305 305 303 301
266 264 263 261 259 258 258 257 256 255 254 253 254 255 256 258 260 263 265 268 271 275 278 282 286 289 293 296 299 301 302 304 304 306 308 308 308 306 304 302 302 301 300
264 263 262 260 258 257 256 256 255 254 253 253 253 254 255 257 259 261 263 265 268 271 275 278 282 285 289 291 294 297 299 301 301 302 303 305 306 305 304 303 301 300 299
Height
5848 5848 5848 5848 5848 5847 5847 5846 5845 5843 5841 5839 5836 5833 5829 5825 5821 5816 5812 5807 5803 5798 5794 5791 5787 5785 5783 5782 5782 5782 5783 5785 5787 5790 5794 5797 5801 5805 5810 5815 5819 5823 5827
5846 5846 5846 5846 5846 5846 5846 5845 5844 5842 5840 5837 5835 5831 5828 5824 5820 5816 5811 5807 5802 5798 5794 5790 5787 5784 5782 5781 5780 5781 5781 5783 5785 5787 5790 5794 5798 5802 5806 5810 5815 5820 5823
5844 5844 5845 5845 5845 5845 5844 5843 5842 5841 5839 5836 5834 5830 5827 5823 5819 5815 5811 5807 5802 5798 5794 5790 5787 5784 5782 5780 5779 5779 5780 5781 5783 5785 5788 5791 5794 5798 5802 5806 5811 5815 5819
5842 5842 5843 5843 5843 5843 5843 5842 5841 5840 5838 5835 5833 5830 5826 5823 5819 5815 5811 5807 5802 5798 5794 5790 5787 5784 5782 5780 5779 5779 5779 5780 5781 5783 5785 5788 5791 5795 5799 5803 5807 5811 5815
5840 5841 5841 5841 5842 5842 5841 5841 5840 5838 5836 5834 5831 5829 5825 5822 5818 5814 5811 5807 5803 5799 5795 5791 5787 5785 5782 5780 5779 5778 5778 5779 5780 5781 5783 5785 5788 5792 5795 5799 5803 5807 5810
5839 5838 5839 5839 5840 5840 5839 5839 5838 5837 5835 5833 5830 5828 5825 5821 5818 5814 5810 5807 5803 5799 5795 5792 5788 5785 5783 5781 5779 5778 5778 5778 5778 5779 5781 5783 5785 5789 5792 5795 5798 5802 5806
5836 5836 5837 5837 5838 5838 5838 5837 5836 5835 5833 5831 5829 5827 5824 5821 5817 5814 5810 5807 5803 5799 5796 5792 5789 5786 5783 5781 5780 5778 5778 5777 5778 5778 5780 5781 5783 5786 5789 5792 5795 5798 5801
5834 5834 5834 5835 5835 5836 5836 5835 5834 5833 5832 5830 5828 5826 5823 5820 5817 5813 5810 5806 5803 5799 5796 5793 5790 5787 5784 5782 5780 5779 5778 5777 5777 5777 5778 5779 5781 5783 5785 5788 5791 5794 5797
5831 5831 5832 5832 5833 5833 5833 5833 5833 5832 5830 5829 5827 5824 5822 5819 5816 5813 5810 5806 5803 5799 5796 5793 5790 5787 5785 5782 5780 5779 5778 5777 5776 5776 5776 5777 5778 5780 5782 5784 5787 5790 5793
5828 5828 5829 5829 5830 5830 5831 5831 5830 5830 5828 5827 5825 5823 5821 5818 5815 5812 5809 5806 5803 5799 5796 5793 5790 5787 5785 5783 5781 5779 5778 5776 5776 5775 5775 5775 5776 5777 5779 5781 5783 5786 5788
5825 5825 5826 5826 5827 5827 5828 5828 5828 5827 5826 5825 5823 5822 5820 5817 5815 5812 5809 5806 5802 5799 5796 5793 5790 5788 5785 5783 5780 5779 5777 5776 5775 5774 5774 5774 5774 5775 5776 5778 5780 5782 5784
5821 5821 5822 5822 5823 5824 5825 5825 5825 5824 5824 5823 5821 5820 5818 5816 5813 5811 5808 5805 5802 5799 5796 5793 5790 5787 5785 5782 5780 5778 5776 5775 5773 5772 5772 5772 5772 5772 5773 5774 5776 5778 5779
5817 5817 5818 5818 5819 5820 5821 5821 5821 5821 5821 5820 5819 5818 5816 5814 5812 5810 5807 5804 5801 5798 5796 5793 5790 5787 5784 5782 5779 5777 5775 5773 5772 5771 5770 5770 5770 5770 5770 5771 5773 5774 5775
5812 5812 5813 5814 5815 5815 5816 5817 5818 5818 5818 5817 5816 5815 5814 5812 5810 5808 5806 5803 5800 5798 5795 5792 5789 5787 5784 5781 5779 5776 5774 5772 5771 5770 5768 5768 5768 5768 5768 5768 5769 5770 5771
5807 5808 5808 5809 5810 5811 5812 5813 5813 5814 5814 5814 5813 5812 5811 5810 5808 5806 5804 5802 5799 5796 5794 5791 5789 5786 5783 5781 5778 5776 5773 5772 5770 5768 5767 5766 5766 5765 5765 5765 5766 5766 5767
5802 5802 5803 5804 5804 5805 5806 5807 5808 5809 5809 5809 5809 5809 5808 5807 5805 5804 5802 5800 5797 5795 5792 5790 5788 5785 5782 5780 5777 5775 5772 5771 5769 5767 5766 5764 5764 5763 5763 5763 5763 5763 5763
5797 5797 5797 5798 5799 5800 5801 5802 5803 5804 5804 5805 5805 5804 5804 5803 5802 5801 5799 5797 5795 5793 5790 5788 5786 5784 5781 5778 5776 5773 5771 5769 5767 5765 5764 5763 5762 5761 5760 5760 5759 5759 5759
5791 5791 5791 5792 5793 5794 5795 5796 5797 5798 5799 5799 5800 5800 5799 5799 5798 5797 5796 5794 5792 5790 5788 5786 5784 5782 5779 5777 5774 5772 5770 5767 5765 5763 5762 5761 5759 5758 5757 5757 5756 5755 5755
5786 5785 5786 5786 5786 5787 5788 5789 5791 5792 5793 5794 5794 5794 5794 5794 5794 5793 5792 5790 5789 5787 5786 5784 5782 5779 5777 5774 5772 5770 5768 5765 5763 5761 5760 5758 5757 5755 5754 5753 5752 5751 5750
5779 5779 5779 5779 5780 5780 5781 5782 5784 5785 5786 5787 5788 5788 5789 5789 5789 5788 5787 5786 5785 5784 5782 5780 5779 5777 5774 5772 5769 5767 5765 5763 5761 5759 5757 5756 5754 5752 5751 5750 5748 5747 5746
5773 5772 5772 5772 5773 5773 5774 5775 5776 5778 5779 5780 5781 5782 5782 5783 5783 5783 5782 5781 5781 5779 5778 5777 5775 5773 5771 5768 5766 5764 5762 5760 5758 5756 5754 5752 5750 5749 5747 5745 5744 5743 5741
5765 5765 5765 5765 5765 5765 5766 5767 5768 5770 5771 5772 5773 5774 5775 5776 5776 5776 5776 5776 5775 5774 5773 5772 5770 5769 5767 5765 5763 5760 5758 5756 5754 5752 5750 5748 5746 5744 5743 5741 5739 5738 5736
5756 5756 5756 5757 5757 5757 5758 5759 5760 5761 5762 5764 5765 5766 5767 5768 5769 5769 5769 5769 5769 5768 5768 5767 5765 5764 5762 5760 5758 5756 5754 5752 5750 5748 5746 5744 5742 5740 5738 5736 5734 5733 5731
5745 5746 5746 5747 5748 5748 5749 5749 5750 5751 5753 5755 5756 5758 5759 5760 5761 5762 5762 5762 5762 5762 5761 5761 5760 5758 5757 5755 5753 5751 5749 5747 5745 5743 5741 5739 5737 5735 5733 5731 5729 5727 5726
5734 5734 5735 5736 5737 5737 5738 5739 5740 5742 5743 5745 5747 5748 5750 5751 5752 5753 5754 5755 5755 5754 5754 5754 5753 5752 5751 5749 5748 5746 5744 5742 5740 5738 5736 5734 5731 5729 5727 5725 5723 5722 5720
5720 5721 5722 5723 5724 5726 5727 5728 5729 5731 5733 5734 5737 5739 5740 5742 5743 5744 5745 5746 5746 5746 5746 5746 5746 5745 5744 5742 5741 5739 5737 5736 5734 5732 5730 5728 5726 5723 5721 5719 5717 5715 5714